Weather in Nevskoye

Russia / Kaliningrad Oblast     54°44′28″N   20°34′00″E
temp.,
°C
wind,
m/s
gust,
m/s
humid.,
%
clouds,
%
prec.,
mm/h
press.,
hPa
HPBL,
m
14 august, sun
sun1423:00+18ene34767 0.0 101858
02:00+16e3681100 0.0 101891
05:00+15ene3388100 0.0 101741
08:00+21ene47565 0.0 1016326
11:00+28e5747100 0.0 10151027
14:00+29ese774181 0.0 10141491
17:00+27ese6753100 0.0 1013989
20:00+24e596556 0.0 1012380
15 august, mon
mon1523:00+19e389314 0.0 1012152
02:00+19ese411895 0.0 1012235
05:00+18e398719 0.0 1011163
08:00+23ese586027 0.0 1012369
11:00+28ese6744100 0.0 1011985
14:00+32se673438 0.0 10102227
17:00+30se7742100 0.0 10091837
20:00+25ese6115938 0.1 1009488
16 august, tue
tue1623:00+19e48847 0.7 1011137
02:00+20ese2678100 0.7 1011127
05:00+18ese3792100 0.6 1010125
08:00+22ese47795 0.6 1010263
11:00+29se574263 0.0 10101118
14:00+33se562937 0.0 10092538
17:00+31ese76375 0.0 10101634
20:00+24e37635 0.0 1010152
17 august, wed
wed1723:00+20se35850 0.0 101187
02:00+19se23903 0.2 101137
05:00+18se22912 0.0 101128
08:00+23ese45685 0.0 1012274
11:00+30se45415 0.0 10121140
14:00+33se54306 0.0 10112110
17:00+32se553016 0.0 10111917
20:00+25ese48566 0.0 1012194
18 august, thu
thu1823:00+21ese347699 0.0 101271
02:00+20ese348455 0.0 101250
05:00+18ese3485100 0.0 101254
08:00+23ese346187 0.0 1012250
11:00+30ese444052 0.0 10111390
14:00+32ese44335 0.0 10102151
17:00+32ese653610 0.0 10102359
20:00+26e59583 0.0 1010364